Regional Weather Roundup
Issued by NWS

Home | Current Version | Previous Version | Graphics & Text | Print | Product List | Glossary On
Versions: 1 2 3 4 5 6 7 8 9 10 11 12 13 14 15 16 17 18 19 20 21 22 23 24 25 26 27
000
ASUS45 KBOU 231307
RWRCO

WEATHER ROUNDUP FOR COLORADO
NATIONAL WEATHER SERVICE DENVER/BOULDER CO
700 AM MDT SUN APR 23 2017

NOTE: "FAIR" INDICATES FEW OR NO CLOUDS BELOW 12000 FEET WITH NO
SIGNIFICANT WEATHER AND/OR OBSTRUCTIONS TO VISIBILITY.

COZ001>005-013-030-031-231400-
...NORTHWEST COLORADO...

CITY           SKY/WX    TMP DP  RH WIND       PRES   REMARKS
CRAIG          FAIR      30  25  81 CALM      30.04F
HAYDEN         FAIR      32  19  59 E10       30.06S WCI  24
MEEKER         FAIR      31  26  82 CALM      30.04F
MOUNT WERNER   NOT AVBL
STEAMBOAT SPGS FAIR      27  22  81 E3        30.08S
WALDEN           N/A     32  21  64 SE3       30.10S
$$

COZ006>008-011-231400-
...WEST CENTRAL VALLEYS...

CITY           SKY/WX    TMP DP  RH WIND       PRES   REMARKS
GRAND JUNCTION FAIR      44  23  43 SE10      30.02R
MONTROSE       FAIR      36  23  59 SE8       30.11S
EAGLE          CLEAR     27  21  80 CALM      30.16S
RIFLE          FAIR      34  28  79 CALM      30.07F
DELTA          FAIR      39  23  52 CALM      30.08S
NUCLA          FAIR      36  21  55 E6        30.12S
$$

COZ017>023-064>068-231400-
...SOUTHWEST COLORADO...

CITY           SKY/WX    TMP DP  RH WIND       PRES   REMARKS
DURANGO        FAIR      29  19  66 N5        30.19R WCI  24
CORTEZ         FAIR      35  24  64 NE3       30.11S
PAGOSA SPRINGS FAIR      30  19  63 CALM      30.24R
TELLURIDE      FAIR      43   9  25 CALM      30.21R
WOLF CREEK PAS FAIR      23  19  86 SW16G22   30.35S WCI  10
$$

COZ009-010-012-014-032>034-037-058>063-231400-
...CENTRAL COLORADO...

CITY           SKY/WX    TMP DP  RH WIND       PRES   REMARKS
ASPEN          FAIR      27  19  72 S7        30.12F WCI  19
BUENA VISTA    FAIR      25  22  87 W7        30.18R WCI  17
COPPER MTN     FAIR      36  -9  14 MISG      30.26R
BERTHOUD PASS  FAIR      28  18  64 W32       30.21S WCI  12
COTTONWOOD PAS FAIR      32  23  69 E5        30.19S WCI  27
GUNNISON       FAIR      24  19  81 CALM      30.23R
KREMMLING      FAIR      28  27  93 CALM      30.15F
LEADVILLE      FAIR      20  13  74 CALM      30.18S
MONARCH PASS   FAIR      25  19  80 SW25      30.37R WCI   9
SALIDA         FAIR      35  27  74 NW9       30.23R WCI  27
SUNLIGHT       FAIR      30  14  51 S8        30.24F WCI  23
WILKERSON PASS FAIR      28  18  64 W12G26    30.24R WCI  18
$$

COZ069>075-231400-
...SAN LUIS VALLEY/SANGRE DE CRISTO MOUNTAINS...

CITY           SKY/WX    TMP DP  RH WIND       PRES   REMARKS
ALAMOSA        FAIR      23  20  88 CALM      30.23R
LA VETA PASS   FAIR      28  25  86 SW44G54   30.29R WCI  10
SAGUACHE       NOT AVBL
$$

COZ035-036-038>040-231400-
...NORTHERN COLORADO FRONT RANGE...

CITY           SKY/WX    TMP DP  RH WIND       PRES   REMARKS
DENVER INTL AP MOCLDY    41  31  67 W10       30.01R
DMNS CITY PARK   N/A     40  30  67 SW3       30.01S
AURORA         MOCLDY    42  29  60 SW12      30.02R
FRONT RANGE AP NOT AVBL
ERIE MUNI ARPT FAIR      37  34  91 CALM      30.01F
BOULDER MUN AP FAIR      37  32  81 CALM      30.00F
CENTENNIAL     MOCLDY    40  30  67 S7        30.02S
BROOMFIELD     MOCLDY    39  32  75 W8        30.01S
FORT COLLINS   FAIR      33  32  96 CALM      30.01S
LONGMONT       FAIR      38  33  81 SW3       30.03S HAZE
$$

COZ041-046-047-076>085-087-088-231400-
...PIKES PEAK/PALMER DIVIDE AND SOUTHERN FOOTHILLS...

CITY           SKY/WX    TMP DP  RH WIND       PRES   REMARKS
COLO. SPRINGS  MOCLDY    37  31  78 CALM      30.09R
A. F. ACADEMY  FAIR      30  29  94 N5        30.08S WCI  25
SCHRIEVER AFB  FAIR      35  31  86 N5        30.09S WCI  30
ELLICOTT       FAIR     N/A N/A N/A S6        30.07S
FALCON         FAIR      34  29  82 W3        30.10S
FORT CARSON    FAIR      34  30  86 CALM      30.08R
LIMON          FAIR      34  33  96 SE9       30.07S WCI  27
MONUMENT HILL  FAIR      36  27  69 S10       30.08R
TRINIDAD       FAIR      41  29  62 VRB5      30.10S
$$

COZ042>045-048>051-090-091-231400-
...NORTHEAST COLORADO...

CITY           SKY/WX    TMP DP  RH WIND       PRES   REMARKS
GREELEY ARPT   FAIR      35  34  96 CALM      30.02S
AKRON          FAIR      37  31  78 SE12      30.03F
BURLINGTON     NOT AVBL
WRAY           NOT AVBL
STERLING       FAIR      37  34  87 S5        30.03F
HOLYOKE        FAIR      37  34  87 S8        30.08F
FORT MORGAN    FAIR      35  32  90 E6        30.03F WCI  30
$$

COZ086-089-092>099-231400-
...SOUTHEAST COLORADO...

CITY           SKY/WX    TMP DP  RH WIND       PRES   REMARKS
PUEBLO         FAIR      38  34  85 CALM      30.07S
LA JUNTA       FAIR      41  36  82 CALM      30.09S
LAMAR          FAIR      43  33  68 S14       30.10F
SPRINGFIELD      N/A     37  32  82 S15       30.15F
$$




USA.gov is the U.S. government's official web portal to all federal, state and local government web resources and services.